date,time,SUV Intensity [MED/Hr],UV Index,Daily total [MED],Since Last [MED]
18/09/2022,00:00:46,0.000,0.0,0.0,0.0
18/09/2022,00:01:46,0.000,0.0,0.0,0.0
18/09/2022,00:02:45,0.001,0.0,0.0,0.0
18/09/2022,00:03:46,0.000,0.0,0.0,0.0
18/09/2022,00:04:46,-0.001,0.0,0.0,0.0
18/09/2022,00:05:46,0.000,0.0,0.0,0.0
18/09/2022,00:06:54,0.000,0.0,0.0,0.0
18/09/2022,00:07:46,-0.001,0.0,0.0,0.0
18/09/2022,00:08:47,0.000,0.0,0.0,0.0
18/09/2022,00:09:46,0.001,0.0,0.0,0.0
18/09/2022,00:10:46,0.000,0.0,0.0,0.0
18/09/2022,00:11:46,0.001,0.0,0.0,0.0
18/09/2022,00:12:46,0.001,0.0,0.0,0.0
18/09/2022,00:13:46,0.000,0.0,0.0,0.0
18/09/2022,00:14:46,-0.000,0.0,0.0,0.0
18/09/2022,00:15:46,0.000,0.0,0.0,0.0
18/09/2022,00:16:54,0.000,0.0,0.0,0.0
18/09/2022,00:17:46,0.000,0.0,0.0,0.0
18/09/2022,00:18:46,0.001,0.0,0.0,0.0
18/09/2022,00:19:46,0.000,0.0,0.0,0.0
18/09/2022,00:20:46,0.000,0.0,0.0,0.0
18/09/2022,00:21:46,0.000,0.0,0.0,0.0
18/09/2022,00:22:46,0.000,0.0,0.0,0.0
18/09/2022,00:23:46,0.000,0.0,0.0,0.0
18/09/2022,00:24:46,0.001,0.0,0.0,0.0
18/09/2022,00:25:45,-0.000,0.0,0.0,0.0
18/09/2022,00:26:45,0.000,0.0,0.0,0.0
18/09/2022,00:27:46,0.000,0.0,0.0,0.0
18/09/2022,00:28:46,0.001,0.0,0.0,0.0
18/09/2022,00:29:46,0.000,0.0,0.0,0.0
18/09/2022,00:30:45,0.000,0.0,0.0,0.0
18/09/2022,00:31:46,0.000,0.0,0.0,0.0
18/09/2022,00:32:46,0.000,0.0,0.0,0.0
18/09/2022,00:33:46,-0.000,0.0,0.0,0.0
18/09/2022,00:34:54,-0.001,0.0,0.0,0.0
18/09/2022,00:35:54,0.000,0.0,0.0,0.0
18/09/2022,00:36:46,0.000,0.0,0.0,0.0
18/09/2022,00:37:46,0.000,0.0,0.0,0.0
18/09/2022,00:38:46,0.000,0.0,0.0,0.0
18/09/2022,00:39:46,-0.001,0.0,0.0,0.0
18/09/2022,00:40:46,-0.001,0.0,0.0,0.0
18/09/2022,00:41:46,0.000,0.0,0.0,0.0
18/09/2022,00:42:46,0.000,0.0,0.0,0.0
18/09/2022,00:43:45,0.000,0.0,0.0,0.0
18/09/2022,00:44:46,0.000,0.0,0.0,0.0
18/09/2022,00:45:46,0.000,0.0,0.0,0.0
18/09/2022,00:46:46,0.000,0.0,0.0,0.0
18/09/2022,00:47:46,0.001,0.0,0.0,0.0
18/09/2022,00:48:46,0.000,0.0,0.0,0.0
18/09/2022,00:49:46,-0.000,0.0,0.0,0.0
18/09/2022,00:50:54,0.001,0.0,0.0,0.0
18/09/2022,00:51:46,0.000,0.0,0.0,0.0
18/09/2022,00:52:46,0.000,0.0,0.0,0.0
18/09/2022,00:53:46,-0.001,0.0,0.0,0.0
18/09/2022,00:54:46,0.000,0.0,0.0,0.0
18/09/2022,00:55:46,0.001,0.0,0.0,0.0
18/09/2022,00:56:46,0.001,0.0,0.0,0.0
18/09/2022,00:57:45,0.000,0.0,0.0,0.0
18/09/2022,00:58:46,0.000,0.0,0.0,0.0
18/09/2022,00:59:37,0.000,0.0,0.0,0.0
18/09/2022,01:00:46,-0.001,0.0,0.0,0.0
18/09/2022,01:01:46,0.000,0.0,0.0,0.0
18/09/2022,01:02:46,-0.001,0.0,0.0,0.0
18/09/2022,01:03:45,0.000,0.0,0.0,0.0
18/09/2022,01:04:45,0.000,0.0,0.0,0.0
18/09/2022,01:05:46,-0.000,0.0,0.0,0.0
18/09/2022,01:06:46,0.001,0.0,0.0,0.0
18/09/2022,01:07:46,0.000,0.0,0.0,0.0
18/09/2022,01:08:45,-0.000,0.0,0.0,0.0
18/09/2022,01:09:46,0.001,0.0,0.0,0.0
18/09/2022,01:10:55,-0.000,0.0,0.0,0.0
18/09/2022,01:11:57,0.001,0.0,0.0,0.0
18/09/2022,01:13:47,0.001,0.0,0.0,0.0
18/09/2022,01:14:45,0.000,0.0,0.0,0.0
18/09/2022,01:15:46,0.000,0.0,0.0,0.0
18/09/2022,01:16:46,0.000,0.0,0.0,0.0
18/09/2022,01:17:46,0.001,0.0,0.0,0.0
18/09/2022,01:18:46,0.000,0.0,0.0,0.0
18/09/2022,01:19:46,0.001,0.0,0.0,0.0
18/09/2022,01:20:46,0.000,0.0,0.0,0.0
18/09/2022,01:21:46,-0.001,0.0,0.0,0.0
18/09/2022,01:22:46,0.000,0.0,0.0,0.0
18/09/2022,01:23:54,-0.001,0.0,0.0,0.0
18/09/2022,01:24:46,0.000,0.0,0.0,0.0
18/09/2022,01:25:46,-0.001,0.0,0.0,0.0
18/09/2022,01:26:54,0.000,0.0,0.0,0.0
18/09/2022,01:27:45,0.000,0.0,0.0,0.0
18/09/2022,01:28:46,-0.001,0.0,0.0,0.0
18/09/2022,01:29:46,-0.000,0.0,0.0,0.0
18/09/2022,01:30:45,0.000,0.0,0.0,0.0
18/09/2022,01:31:46,0.001,0.0,0.0,0.0
18/09/2022,01:32:46,0.000,0.0,0.0,0.0
18/09/2022,01:33:54,0.001,0.0,0.0,0.0
18/09/2022,01:34:45,0.000,0.0,0.0,0.0
18/09/2022,01:35:45,0.000,0.0,0.0,0.0
18/09/2022,01:36:54,0.000,0.0,0.0,0.0
18/09/2022,01:37:45,0.000,0.0,0.0,0.0
18/09/2022,01:38:46,0.001,0.0,0.0,0.0
18/09/2022,01:39:45,0.000,0.0,0.0,0.0
18/09/2022,01:40:46,0.000,0.0,0.0,0.0
18/09/2022,01:41:46,0.000,0.0,0.0,0.0
18/09/2022,01:42:46,0.001,0.0,0.0,0.0
18/09/2022,01:43:46,-0.000,0.0,0.0,0.0
18/09/2022,01:44:46,0.000,0.0,0.0,0.0
18/09/2022,01:45:46,0.000,0.0,0.0,0.0
18/09/2022,01:46:54,0.000,0.0,0.0,0.0
18/09/2022,01:47:46,-0.000,0.0,0.0,0.0
18/09/2022,01:48:46,-0.000,0.0,0.0,0.0
18/09/2022,01:49:46,0.000,0.0,0.0,0.0
18/09/2022,01:51:02,-0.001,0.0,0.0,0.0
18/09/2022,01:52:54,0.000,0.0,0.0,0.0
18/09/2022,01:53:46,0.000,0.0,0.0,0.0
18/09/2022,01:54:46,0.000,0.0,0.0,0.0
18/09/2022,01:55:46,0.000,0.0,0.0,0.0
18/09/2022,01:56:54,0.000,0.0,0.0,0.0
18/09/2022,01:57:46,0.000,0.0,0.0,0.0
18/09/2022,01:58:46,0.000,0.0,0.0,0.0
18/09/2022,01:59:54,0.000,0.0,0.0,0.0
18/09/2022,02:00:46,0.000,0.0,0.0,0.0
18/09/2022,02:01:46,0.000,0.0,0.0,0.0
18/09/2022,02:02:46,0.000,0.0,0.0,0.0
18/09/2022,02:03:46,0.001,0.0,0.0,0.0
18/09/2022,02:04:46,0.000,0.0,0.0,0.0
18/09/2022,02:05:46,-0.000,0.0,0.0,0.0
18/09/2022,02:06:45,0.000,0.0,0.0,0.0
18/09/2022,02:07:46,0.001,0.0,0.0,0.0
18/09/2022,02:08:46,0.000,0.0,0.0,0.0
18/09/2022,02:09:54,0.000,0.0,0.0,0.0
18/09/2022,02:10:45,0.001,0.0,0.0,0.0
18/09/2022,02:11:45,-0.000,0.0,0.0,0.0
18/09/2022,02:12:45,0.000,0.0,0.0,0.0
18/09/2022,02:13:46,0.000,0.0,0.0,0.0
18/09/2022,02:14:46,0.001,0.0,0.0,0.0
18/09/2022,02:15:46,0.000,0.0,0.0,0.0
18/09/2022,02:16:46,0.000,0.0,0.0,0.0
18/09/2022,02:17:46,-0.000,0.0,0.0,0.0
18/09/2022,02:18:46,0.000,0.0,0.0,0.0
18/09/2022,02:19:54,0.000,0.0,0.0,0.0
18/09/2022,02:20:46,0.000,0.0,0.0,0.0
18/09/2022,02:21:46,0.000,0.0,0.0,0.0
18/09/2022,02:22:46,-0.000,0.0,0.0,0.0
18/09/2022,02:23:46,0.000,0.0,0.0,0.0
18/09/2022,02:24:46,0.000,0.0,0.0,0.0
18/09/2022,02:25:46,0.000,0.0,0.0,0.0
18/09/2022,02:26:46,0.000,0.0,0.0,0.0
18/09/2022,02:27:45,0.000,0.0,0.0,0.0
18/09/2022,02:28:46,0.001,0.0,0.0,0.0
18/09/2022,02:29:46,-0.001,0.0,0.0,0.0
18/09/2022,02:30:46,-0.000,0.0,0.0,0.0
18/09/2022,02:31:46,-0.000,0.0,0.0,0.0
18/09/2022,02:32:55,0.000,0.0,0.0,0.0
18/09/2022,02:33:46,0.000,0.0,0.0,0.0
18/09/2022,02:34:46,-0.001,0.0,0.0,0.0
18/09/2022,02:35:46,0.000,0.0,0.0,0.0
18/09/2022,02:36:46,0.000,0.0,0.0,0.0
18/09/2022,02:37:46,0.000,0.0,0.0,0.0
18/09/2022,02:38:46,-0.000,0.0,0.0,0.0
18/09/2022,02:39:46,0.000,0.0,0.0,0.0
18/09/2022,02:40:46,0.000,0.0,0.0,0.0
18/09/2022,02:41:46,0.001,0.0,0.0,0.0
18/09/2022,02:42:46,0.001,0.0,0.0,0.0
18/09/2022,02:43:46,0.001,0.0,0.0,0.0
18/09/2022,02:44:46,0.000,0.0,0.0,0.0
18/09/2022,02:45:46,-0.000,0.0,0.0,0.0
18/09/2022,02:46:46,-0.000,0.0,0.0,0.0
18/09/2022,02:47:46,0.000,0.0,0.0,0.0
18/09/2022,02:48:46,0.001,0.0,0.0,0.0
18/09/2022,02:49:47,0.001,0.0,0.0,0.0
18/09/2022,02:50:46,0.000,0.0,0.0,0.0
18/09/2022,02:51:46,0.001,0.0,0.0,0.0
18/09/2022,02:52:46,-0.001,0.0,0.0,0.0
18/09/2022,02:53:46,0.000,0.0,0.0,0.0
18/09/2022,02:54:46,0.000,0.0,0.0,0.0
18/09/2022,02:55:46,0.001,0.0,0.0,0.0
18/09/2022,02:56:46,0.000,0.0,0.0,0.0
18/09/2022,02:57:46,0.000,0.0,0.0,0.0
18/09/2022,02:58:46,0.000,0.0,0.0,0.0
18/09/2022,02:59:46,0.000,0.0,0.0,0.0
18/09/2022,03:00:46,-0.000,0.0,0.0,0.0
18/09/2022,03:01:46,0.000,0.0,0.0,0.0
18/09/2022,03:02:46,0.000,0.0,0.0,0.0
18/09/2022,03:03:47,0.001,0.0,0.0,0.0
18/09/2022,03:04:47,0.000,0.0,0.0,0.0
18/09/2022,03:05:48,0.000,0.0,0.0,0.0
18/09/2022,03:06:48,0.000,0.0,0.0,0.0
18/09/2022,03:07:55,0.000,0.0,0.0,0.0
18/09/2022,03:08:46,0.000,0.0,0.0,0.0
18/09/2022,03:09:46,0.002,0.0,0.0,0.0
18/09/2022,03:10:46,-0.000,0.0,0.0,0.0
18/09/2022,03:11:46,0.000,0.0,0.0,0.0
18/09/2022,03:12:46,0.001,0.0,0.0,0.0
18/09/2022,03:13:46,0.000,0.0,0.0,0.0
18/09/2022,03:14:46,0.001,0.0,0.0,0.0
18/09/2022,03:15:46,0.001,0.0,0.0,0.0
18/09/2022,03:16:46,0.001,0.0,0.0,0.0
18/09/2022,03:17:54,0.001,0.0,0.0,0.0
18/09/2022,03:18:46,0.001,0.0,0.0,0.0
18/09/2022,03:19:46,0.000,0.0,0.0,0.0
18/09/2022,03:20:46,0.001,0.0,0.0,0.0
18/09/2022,03:21:46,0.000,0.0,0.0,0.0
18/09/2022,03:22:47,0.000,0.0,0.0,0.0
18/09/2022,03:23:46,0.000,0.0,0.0,0.0
18/09/2022,03:24:46,0.000,0.0,0.0,0.0
18/09/2022,03:25:46,0.000,0.0,0.0,0.0
18/09/2022,03:26:46,0.000,0.0,0.0,0.0
18/09/2022,03:27:54,0.001,0.0,0.0,0.0
18/09/2022,03:28:46,-0.000,0.0,0.0,0.0
18/09/2022,03:29:46,0.001,0.0,0.0,0.0
18/09/2022,03:30:46,-0.000,0.0,0.0,0.0
18/09/2022,03:31:46,0.000,0.0,0.0,0.0
18/09/2022,03:32:46,-0.001,0.0,0.0,0.0
18/09/2022,03:33:46,0.000,0.0,0.0,0.0
18/09/2022,03:34:46,-0.001,0.0,0.0,0.0
18/09/2022,03:35:46,0.001,0.0,0.0,0.0
18/09/2022,03:36:46,-0.001,0.0,0.0,0.0
18/09/2022,03:37:54,0.000,0.0,0.0,0.0
18/09/2022,03:38:46,-0.000,0.0,0.0,0.0
18/09/2022,03:39:46,0.001,0.0,0.0,0.0
18/09/2022,03:40:46,-0.000,0.0,0.0,0.0
18/09/2022,03:41:46,0.000,0.0,0.0,0.0
18/09/2022,03:42:46,0.000,0.0,0.0,0.0
18/09/2022,03:43:46,0.000,0.0,0.0,0.0
18/09/2022,03:44:55,0.000,0.0,0.0,0.0
18/09/2022,03:45:46,0.001,0.0,0.0,0.0
18/09/2022,03:46:47,0.000,0.0,0.0,0.0
18/09/2022,03:47:54,-0.001,0.0,0.0,0.0
18/09/2022,03:48:46,0.001,0.0,0.0,0.0
18/09/2022,03:49:47,0.000,0.0,0.0,0.0
18/09/2022,03:50:46,0.001,0.0,0.0,0.0
18/09/2022,03:51:46,-0.000,0.0,0.0,0.0
18/09/2022,03:52:46,0.000,0.0,0.0,0.0
18/09/2022,03:53:54,0.002,0.0,0.0,0.0
18/09/2022,03:54:54,0.001,0.0,0.0,0.0
18/09/2022,03:55:45,-0.000,0.0,0.0,0.0
18/09/2022,03:56:46,0.000,0.0,0.0,0.0
18/09/2022,03:57:46,0.000,0.0,0.0,0.0
18/09/2022,03:58:46,-0.001,0.0,0.0,0.0
18/09/2022,03:59:46,0.000,0.0,0.0,0.0
18/09/2022,04:00:46,0.000,0.0,0.0,0.0
18/09/2022,04:01:54,-0.001,0.0,0.0,0.0
18/09/2022,04:02:46,0.001,0.0,0.0,0.0
18/09/2022,04:03:55,-0.000,0.0,0.0,0.0
18/09/2022,04:04:46,-0.001,0.0,0.0,0.0
18/09/2022,04:05:47,-0.000,0.0,0.0,0.0
18/09/2022,04:06:46,-0.000,0.0,0.0,0.0
18/09/2022,04:07:46,-0.000,0.0,0.0,0.0
18/09/2022,04:08:46,-0.001,0.0,0.0,0.0
18/09/2022,04:09:46,-0.000,0.0,0.0,0.0
18/09/2022,04:10:46,0.000,0.0,0.0,0.0
18/09/2022,04:11:46,0.001,0.0,0.0,0.0
18/09/2022,04:12:46,0.000,0.0,0.0,0.0
18/09/2022,04:13:46,-0.000,0.0,0.0,0.0
18/09/2022,04:14:46,-0.001,0.0,0.0,0.0
18/09/2022,04:15:46,-0.000,0.0,0.0,0.0
18/09/2022,04:16:46,-0.000,0.0,0.0,0.0
18/09/2022,04:17:55,0.001,0.0,0.0,0.0
18/09/2022,04:18:46,-0.000,0.0,0.0,0.0
18/09/2022,04:19:46,0.000,0.0,0.0,0.0
18/09/2022,04:20:47,-0.001,0.0,0.0,0.0
18/09/2022,04:21:46,0.000,0.0,0.0,0.0
18/09/2022,04:22:46,0.001,0.0,0.0,0.0
18/09/2022,04:23:47,-0.000,0.0,0.0,0.0
18/09/2022,04:24:46,-0.000,0.0,0.0,0.0
18/09/2022,04:25:59,-0.000,0.0,0.0,0.0
18/09/2022,04:27:47,0.000,0.0,0.0,0.0
18/09/2022,04:28:46,-0.001,0.0,0.0,0.0
18/09/2022,04:29:46,-0.000,0.0,0.0,0.0
18/09/2022,04:30:46,-0.001,0.0,0.0,0.0
18/09/2022,04:31:46,-0.000,0.0,0.0,0.0
18/09/2022,04:32:46,-0.000,0.0,0.0,0.0
18/09/2022,04:33:46,-0.001,0.0,0.0,0.0
18/09/2022,04:34:46,-0.001,0.0,0.0,0.0
18/09/2022,04:35:47,0.000,0.0,0.0,0.0
18/09/2022,04:36:46,-0.000,0.0,0.0,0.0
18/09/2022,04:38:20,-0.000,0.0,0.0,0.0
18/09/2022,04:39:47,-0.000,0.0,0.0,0.0
18/09/2022,04:40:54,-0.001,0.0,0.0,0.0
18/09/2022,04:41:47,0.000,0.0,0.0,0.0
18/09/2022,04:42:46,0.001,0.0,0.0,0.0
18/09/2022,04:43:55,-0.001,0.0,0.0,0.0
18/09/2022,04:44:46,0.000,0.0,0.0,0.0
18/09/2022,04:45:46,-0.000,0.0,0.0,0.0
18/09/2022,04:46:46,0.001,0.0,0.0,0.0
18/09/2022,04:47:46,0.000,0.0,0.0,0.0
18/09/2022,04:48:46,-0.000,0.0,0.0,0.0
18/09/2022,04:49:46,-0.000,0.0,0.0,0.0
18/09/2022,04:50:46,0.000,0.0,0.0,0.0
18/09/2022,04:51:47,-0.000,0.0,0.0,0.0
18/09/2022,04:52:46,-0.000,0.0,0.0,0.0
18/09/2022,04:53:55,-0.000,0.0,0.0,0.0
18/09/2022,04:54:46,-0.000,0.0,0.0,0.0
18/09/2022,04:55:46,0.000,0.0,0.0,0.0
18/09/2022,04:56:46,0.000,0.0,0.0,0.0
18/09/2022,04:57:47,0.000,0.0,0.0,0.0
18/09/2022,04:58:46,0.000,0.0,0.0,0.0
18/09/2022,04:59:46,-0.000,0.0,0.0,0.0
18/09/2022,05:00:46,0.000,0.0,0.0,0.0
18/09/2022,05:01:48,0.001,0.0,0.0,0.0
18/09/2022,05:02:46,0.000,0.0,0.0,0.0
18/09/2022,05:03:54,-0.000,0.0,0.0,0.0
18/09/2022,05:04:46,-0.000,0.0,0.0,0.0
18/09/2022,05:05:46,0.000,0.0,0.0,0.0
18/09/2022,05:06:47,0.000,0.0,0.0,0.0
18/09/2022,05:07:46,-0.000,0.0,0.0,0.0
18/09/2022,05:08:46,0.000,0.0,0.0,0.0
18/09/2022,05:09:46,-0.001,0.0,0.0,0.0
18/09/2022,05:10:46,0.001,0.0,0.0,0.0
18/09/2022,05:11:47,0.000,0.0,0.0,0.0
18/09/2022,05:12:46,-0.001,0.0,0.0,0.0
18/09/2022,05:13:54,0.000,0.0,0.0,0.0
18/09/2022,05:14:46,-0.001,0.0,0.0,0.0
18/09/2022,05:15:46,0.000,0.0,0.0,0.0
18/09/2022,05:16:55,0.000,0.0,0.0,0.0
18/09/2022,05:17:46,-0.000,0.0,0.0,0.0
18/09/2022,05:18:46,0.000,0.0,0.0,0.0
18/09/2022,05:19:47,0.000,0.0,0.0,0.0
18/09/2022,05:20:46,-0.001,0.0,0.0,0.0
18/09/2022,05:21:46,0.000,0.0,0.0,0.0
18/09/2022,05:22:46,0.000,0.0,0.0,0.0
18/09/2022,05:23:46,0.001,0.0,0.0,0.0
18/09/2022,05:24:47,0.001,0.0,0.0,0.0
18/09/2022,05:25:46,0.000,0.0,0.0,0.0
18/09/2022,05:26:46,0.001,0.0,0.0,0.0
18/09/2022,05:27:47,0.001,0.0,0.0,0.0
18/09/2022,05:28:46,0.001,0.0,0.0,0.0
18/09/2022,05:29:46,-0.000,0.0,0.0,0.0
18/09/2022,05:30:47,0.000,0.0,0.0,0.0
18/09/2022,05:31:46,0.001,0.0,0.0,0.0
18/09/2022,05:32:46,-0.000,0.0,0.0,0.0
18/09/2022,05:33:54,0.000,0.0,0.0,0.0
18/09/2022,05:34:46,0.001,0.0,0.0,0.0
18/09/2022,05:35:46,0.001,0.0,0.0,0.0
18/09/2022,05:36:55,0.001,0.0,0.0,0.0
18/09/2022,05:37:47,0.001,0.0,0.0,0.0
18/09/2022,05:38:46,0.002,0.0,0.0,0.0
18/09/2022,05:39:47,0.001,0.0,0.0,0.0
18/09/2022,05:40:46,0.002,0.0,0.0,0.0
18/09/2022,05:41:46,0.002,0.0,0.0,0.0
18/09/2022,05:42:46,0.002,0.0,0.0,0.0
18/09/2022,05:43:55,0.002,0.0,0.0,0.0
18/09/2022,05:44:45,0.002,0.0,0.0,0.0
18/09/2022,05:45:47,0.002,0.0,0.0,0.0
18/09/2022,05:46:54,0.003,0.0,0.0,0.0
18/09/2022,05:47:47,0.003,0.0,0.0,0.0
18/09/2022,05:48:47,0.002,0.0,0.0,0.0
18/09/2022,05:49:46,0.003,0.0,0.0,0.0
18/09/2022,05:50:46,0.003,0.0,0.0,0.0
18/09/2022,05:51:47,0.004,0.0,0.0,0.0
18/09/2022,05:52:46,0.003,0.0,0.0,0.0
18/09/2022,05:53:46,0.005,0.0,0.0,0.0
18/09/2022,05:54:46,0.005,0.0,0.0,0.0
18/09/2022,05:55:46,0.005,0.0,0.0,0.0
18/09/2022,05:56:55,0.005,0.0,0.0,0.0
18/09/2022,05:57:46,0.006,0.0,0.0,0.0
18/09/2022,05:58:47,0.006,0.0,0.0,0.0
18/09/2022,05:59:46,0.007,0.0,0.0,0.0
18/09/2022,06:00:46,0.007,0.0,0.0,0.0
18/09/2022,06:01:46,0.009,0.0,0.0,0.0
18/09/2022,06:02:47,0.009,0.0,0.001,0.001
18/09/2022,06:03:46,0.009,0.0,0.001,0.0
18/09/2022,06:04:46,0.010,0.0,0.001,0.0
18/09/2022,06:05:46,0.010,0.0,0.001,0.0
18/09/2022,06:07:03,0.011,0.0,0.001,0.0
18/09/2022,06:08:47,0.010,0.0,0.002,0.001
18/09/2022,06:09:46,0.012,0.0,0.002,0.0
18/09/2022,06:10:46,0.013,0.0,0.002,0.0
18/09/2022,06:11:46,0.013,0.0,0.002,0.0
18/09/2022,06:12:46,0.014,0.0,0.002,0.0
18/09/2022,06:13:47,0.014,0.0,0.003,0.001
18/09/2022,06:14:46,0.016,0.0,0.003,0.0
18/09/2022,06:15:46,0.016,0.0,0.003,0.0
18/09/2022,06:16:48,0.016,0.0,0.003,0.0
18/09/2022,06:17:46,0.017,0.0,0.004,0.001
18/09/2022,06:18:46,0.018,0.0,0.004,0.0
18/09/2022,06:19:46,0.019,0.0,0.004,0.0
18/09/2022,06:20:46,0.019,0.0,0.005,0.001
18/09/2022,06:21:46,0.019,0.0,0.005,0.0
18/09/2022,06:22:47,0.022,0.0,0.005,0.0
18/09/2022,06:23:47,0.022,0.0,0.006,0.001
18/09/2022,06:24:46,0.022,0.0,0.006,0.0
18/09/2022,06:25:46,0.023,0.0,0.006,0.0
18/09/2022,06:26:46,0.023,0.0,0.007,0.001
18/09/2022,06:27:47,0.025,0.0,0.007,0.0
18/09/2022,06:28:46,0.025,0.0,0.008,0.001
18/09/2022,06:29:46,0.026,0.0,0.008,0.0
18/09/2022,06:30:46,0.027,0.0,0.008,0.0
18/09/2022,06:31:46,0.027,0.0,0.009,0.001
18/09/2022,06:32:46,0.028,0.0,0.009,0.0
18/09/2022,06:33:46,0.029,0.0,0.01,0.001
18/09/2022,06:34:46,0.029,0.0,0.01,0.0
18/09/2022,06:35:46,0.030,0.0,0.011,0.001
18/09/2022,06:36:46,0.031,0.0,0.011,0.0
18/09/2022,06:37:46,0.032,0.0,0.012,0.001
18/09/2022,06:38:46,0.033,0.0,0.012,0.0
18/09/2022,06:39:47,0.035,0.0,0.013,0.001
18/09/2022,06:40:46,0.036,0.0,0.014,0.001
18/09/2022,06:41:46,0.036,0.0,0.014,0.0
18/09/2022,06:42:46,0.037,0.0,0.015,0.001
18/09/2022,06:43:46,0.039,0.0,0.015,0.0
18/09/2022,06:44:47,0.041,0.0,0.016,0.001
18/09/2022,06:45:47,0.042,0.0,0.017,0.001
18/09/2022,06:46:46,0.044,0.0,0.017,0.0
18/09/2022,06:47:55,0.044,0.0,0.018,0.001
18/09/2022,06:48:46,0.048,0.0,0.019,0.001
18/09/2022,06:49:46,0.048,0.0,0.02,0.001
18/09/2022,06:50:47,0.049,0.0,0.021,0.001
18/09/2022,06:51:46,0.050,0.0,0.021,0.0
18/09/2022,06:52:46,0.052,0.0,0.022,0.001
18/09/2022,06:53:47,0.052,0.0,0.023,0.001
18/09/2022,06:54:47,0.054,0.0,0.024,0.001
18/09/2022,06:55:46,0.055,0.0,0.025,0.001
18/09/2022,06:56:47,0.056,0.0,0.026,0.001
18/09/2022,06:57:47,0.057,0.0,0.027,0.001
18/09/2022,06:58:46,0.059,0.0,0.028,0.001
18/09/2022,06:59:44,0.059,0.0,0.029,0.001
18/09/2022,07:00:55,0.062,0.0,0.03,0.001
18/09/2022,07:01:46,0.063,0.0,0.031,0.001
18/09/2022,07:02:47,0.065,0.0,0.032,0.001
18/09/2022,07:03:54,0.067,0.0,0.033,0.001
18/09/2022,07:04:46,0.069,0.0,0.034,0.001
18/09/2022,07:05:47,0.071,0.0,0.035,0.001
18/09/2022,07:06:46,0.072,0.0,0.036,0.001
18/09/2022,07:07:46,0.073,0.0,0.038,0.002
18/09/2022,07:08:46,0.077,0.0,0.039,0.001
18/09/2022,07:09:46,0.079,0.0,0.04,0.001
18/09/2022,07:10:47,0.081,0.0,0.042,0.002
18/09/2022,07:11:46,0.083,0.0,0.043,0.001
18/09/2022,07:12:46,0.086,0.0,0.044,0.001
18/09/2022,07:13:55,0.090,0.0,0.046,0.002
18/09/2022,07:14:46,0.091,0.0,0.047,0.001
18/09/2022,07:15:46,0.094,0.0,0.049,0.002
18/09/2022,07:16:47,0.097,0.0,0.05,0.001
18/09/2022,07:17:46,0.099,0.0,0.052,0.002
18/09/2022,07:18:46,0.101,0.0,0.054,0.002
18/09/2022,07:19:47,0.105,0.0,0.055,0.001
18/09/2022,07:20:46,0.107,0.0,0.057,0.002
18/09/2022,07:21:46,0.110,0.0,0.059,0.002
18/09/2022,07:22:46,0.112,0.0,0.061,0.002
18/09/2022,07:23:55,0.115,0.0,0.063,0.002
18/09/2022,07:24:46,0.118,0.0,0.065,0.002
18/09/2022,07:25:46,0.120,0.0,0.067,0.002
18/09/2022,07:26:46,0.121,0.0,0.069,0.002
18/09/2022,07:27:46,0.124,0.0,0.071,0.002
18/09/2022,07:28:47,0.126,0.0,0.073,0.002
18/09/2022,07:29:47,0.126,0.0,0.075,0.002
18/09/2022,07:30:47,0.128,0.0,0.077,0.002
18/09/2022,07:31:46,0.128,0.0,0.079,0.002
18/09/2022,07:32:46,0.130,0.0,0.081,0.002
18/09/2022,07:33:46,0.132,0.0,0.083,0.002
18/09/2022,07:34:55,0.132,0.0,0.086,0.003
18/09/2022,07:35:46,0.133,0.0,0.088,0.002
18/09/2022,07:36:54,0.134,0.0,0.09,0.002
18/09/2022,07:37:55,0.135,0.0,0.093,0.003
18/09/2022,07:38:46,0.136,0.0,0.095,0.002
18/09/2022,07:39:46,0.139,0.0,0.097,0.002
18/09/2022,07:40:47,0.139,0.0,0.099,0.002
18/09/2022,07:41:46,0.136,0.0,0.101,0.002
18/09/2022,07:42:47,0.137,0.0,0.104,0.003
18/09/2022,07:43:47,0.139,0.0,0.106,0.002
18/09/2022,07:44:55,0.140,0.0,0.109,0.003
18/09/2022,07:45:46,0.141,0.0,0.111,0.002
18/09/2022,07:46:46,0.142,0.0,0.113,0.002
18/09/2022,07:47:46,0.148,0.0,0.115,0.002
18/09/2022,07:48:47,0.150,0.0,0.118,0.003
18/09/2022,07:49:46,0.151,0.0,0.12,0.002
18/09/2022,07:50:48,0.155,0.0,0.123,0.003
18/09/2022,07:51:46,0.162,0.0,0.126,0.003
18/09/2022,07:52:47,0.168,0.0,0.128,0.002
18/09/2022,07:53:46,0.158,0.0,0.131,0.003
18/09/2022,07:54:55,0.158,0.0,0.134,0.003
18/09/2022,07:55:46,0.167,0.0,0.136,0.002
18/09/2022,07:56:46,0.162,0.0,0.139,0.003
18/09/2022,07:57:47,0.165,0.0,0.142,0.003
18/09/2022,07:58:46,0.167,0.0,0.145,0.003
18/09/2022,07:59:46,0.181,0.0,0.148,0.003
18/09/2022,08:00:47,0.177,0.0,0.15,0.002
18/09/2022,08:01:47,0.180,0.0,0.153,0.003
18/09/2022,08:02:47,0.184,0.0,0.157,0.004
18/09/2022,08:03:46,0.190,0.0,0.16,0.003
18/09/2022,08:04:47,0.200,0.0,0.163,0.003
18/09/2022,08:05:46,0.196,0.0,0.166,0.003
18/09/2022,08:06:47,0.194,0.0,0.169,0.003
18/09/2022,08:07:55,0.196,0.0,0.173,0.004
18/09/2022,08:08:47,0.198,0.0,0.176,0.003
18/09/2022,08:09:46,0.203,0.0,0.179,0.003
18/09/2022,08:10:47,0.209,0.0,0.183,0.004
18/09/2022,08:11:46,0.215,0.0,0.186,0.003
18/09/2022,08:12:47,0.219,1.0,0.19,0.004
18/09/2022,08:13:46,0.227,1.0,0.194,0.004
18/09/2022,08:14:46,0.226,1.0,0.197,0.003
18/09/2022,08:15:47,0.225,1.0,0.201,0.004
18/09/2022,08:16:46,0.227,1.0,0.205,0.004
18/09/2022,08:17:55,0.232,1.0,0.209,0.004
18/09/2022,08:18:47,0.236,1.0,0.213,0.004
18/09/2022,08:19:46,0.253,1.0,0.217,0.004
18/09/2022,08:20:47,0.270,1.0,0.221,0.004
18/09/2022,08:21:46,0.307,1.0,0.226,0.005
18/09/2022,08:22:47,0.314,1.0,0.231,0.005
18/09/2022,08:23:46,0.336,1.0,0.237,0.006
18/09/2022,08:24:47,0.343,1.0,0.242,0.005
18/09/2022,08:25:46,0.338,1.0,0.248,0.006
18/09/2022,08:26:46,0.330,1.0,0.253,0.005
18/09/2022,08:27:55,0.350,1.0,0.26,0.007
18/09/2022,08:28:47,0.346,1.0,0.265,0.005
18/09/2022,08:29:46,0.356,1.0,0.271,0.006
18/09/2022,08:30:47,0.369,1.0,0.277,0.006
18/09/2022,08:31:46,0.355,1.0,0.283,0.006
18/09/2022,08:32:46,0.345,1.0,0.289,0.006
18/09/2022,08:33:47,0.355,1.0,0.295,0.006
18/09/2022,08:34:47,0.380,1.0,0.301,0.006
18/09/2022,08:35:47,0.409,1.0,0.308,0.007
18/09/2022,08:36:46,0.435,1.0,0.315,0.007
18/09/2022,08:37:47,0.443,1.0,0.322,0.007
18/09/2022,08:38:46,0.449,1.0,0.33,0.008
18/09/2022,08:39:47,0.442,1.0,0.337,0.007
18/09/2022,08:40:55,0.449,1.0,0.346,0.009
18/09/2022,08:41:46,0.425,1.0,0.352,0.006
18/09/2022,08:42:46,0.449,1.0,0.359,0.007
18/09/2022,08:43:47,0.450,1.0,0.367,0.008
18/09/2022,08:44:46,0.444,1.0,0.374,0.007
18/09/2022,08:45:47,0.453,1.0,0.382,0.008
18/09/2022,08:46:46,0.469,1.0,0.389,0.007
18/09/2022,08:47:46,0.453,1.0,0.397,0.008
18/09/2022,08:48:47,0.475,1.0,0.405,0.008
18/09/2022,08:49:46,0.501,1.0,0.413,0.008
18/09/2022,08:50:55,0.507,1.0,0.422,0.009
18/09/2022,08:51:47,0.512,1.0,0.43,0.008
18/09/2022,08:52:47,0.512,1.0,0.438,0.008
18/09/2022,08:53:47,0.521,1.0,0.447,0.009
18/09/2022,08:54:47,0.524,1.0,0.456,0.009
18/09/2022,08:55:47,0.520,1.0,0.464,0.008
18/09/2022,08:56:47,0.532,1.0,0.473,0.009
18/09/2022,08:57:46,0.539,1.0,0.482,0.009
18/09/2022,08:58:46,0.538,1.0,0.491,0.009
18/09/2022,08:59:47,0.544,1.0,0.5,0.009
18/09/2022,09:00:55,0.529,1.0,0.51,0.01
18/09/2022,09:01:46,0.544,1.0,0.518,0.008
18/09/2022,09:02:47,0.551,1.0,0.527,0.009
18/09/2022,09:03:46,0.561,1.0,0.536,0.009
18/09/2022,09:04:46,0.566,1.0,0.546,0.01
18/09/2022,09:05:47,0.566,1.0,0.555,0.009
18/09/2022,09:06:46,0.567,1.0,0.565,0.01
18/09/2022,09:07:46,0.570,1.0,0.574,0.009
18/09/2022,09:08:47,0.568,1.0,0.584,0.01
18/09/2022,09:09:46,0.580,1.0,0.593,0.009
18/09/2022,09:10:47,0.592,1.0,0.603,0.01
18/09/2022,09:11:46,0.572,1.0,0.613,0.01
18/09/2022,09:12:46,0.584,1.0,0.622,0.009
18/09/2022,09:13:48,0.598,1.0,0.632,0.01
18/09/2022,09:14:55,0.618,1.0,0.644,0.012
18/09/2022,09:15:47,0.631,1.0,0.653,0.009
18/09/2022,09:16:47,0.635,1.0,0.663,0.01
18/09/2022,09:17:46,0.646,1.0,0.674,0.011
18/09/2022,09:18:47,0.661,2.0,0.685,0.011
18/09/2022,09:19:47,0.673,2.0,0.696,0.011
18/09/2022,09:20:47,0.680,2.0,0.707,0.011
18/09/2022,09:21:46,0.682,2.0,0.718,0.011
18/09/2022,09:22:47,0.685,2.0,0.73,0.012
18/09/2022,09:23:47,0.661,2.0,0.741,0.011
18/09/2022,09:24:55,0.703,2.0,0.754,0.013
18/09/2022,09:25:47,0.708,2.0,0.764,0.01
18/09/2022,09:26:47,0.714,2.0,0.776,0.012
18/09/2022,09:27:46,0.721,2.0,0.788,0.012
18/09/2022,09:28:47,0.728,2.0,0.8,0.012
18/09/2022,09:29:46,0.733,2.0,0.812,0.012
18/09/2022,09:30:46,0.739,2.0,0.824,0.012
18/09/2022,09:31:47,0.746,2.0,0.837,0.013
18/09/2022,09:32:47,0.753,2.0,0.849,0.012
18/09/2022,09:33:47,0.763,2.0,0.862,0.013
18/09/2022,09:34:56,0.771,2.0,0.876,0.014
18/09/2022,09:35:46,0.775,2.0,0.887,0.011
18/09/2022,09:36:47,0.780,2.0,0.9,0.013
18/09/2022,09:37:46,0.789,2.0,0.913,0.013
18/09/2022,09:38:47,0.792,2.0,0.926,0.013
18/09/2022,09:39:47,0.775,2.0,0.94,0.014
18/09/2022,09:40:55,0.782,2.0,0.954,0.014
18/09/2022,09:41:46,0.796,2.0,0.965,0.011
18/09/2022,09:42:46,0.800,2.0,0.979,0.014
18/09/2022,09:43:47,0.818,2.0,0.992,0.013
18/09/2022,09:44:46,0.828,2.0,1.006,0.014
18/09/2022,09:45:47,0.834,2.0,1.02,0.014
18/09/2022,09:46:46,0.837,2.0,1.034,0.014
18/09/2022,09:47:55,0.835,2.0,1.049,0.015
18/09/2022,09:48:46,0.832,2.0,1.061,0.012
18/09/2022,09:49:47,0.841,2.0,1.075,0.014
18/09/2022,09:50:55,0.855,2.0,1.092,0.017
18/09/2022,09:51:47,0.860,2.0,1.104,0.012
18/09/2022,09:52:46,0.863,2.0,1.118,0.014
18/09/2022,09:53:47,0.876,2.0,1.133,0.015
18/09/2022,09:54:46,0.884,2.0,1.147,0.014
18/09/2022,09:55:47,0.888,2.0,1.162,0.015
18/09/2022,09:56:55,0.900,2.0,1.179,0.017
18/09/2022,09:57:46,0.906,2.0,1.192,0.013
18/09/2022,09:58:47,0.909,2.0,1.207,0.015
18/09/2022,09:59:46,0.918,2.0,1.222,0.015
18/09/2022,10:00:55,0.918,2.0,1.24,0.018
18/09/2022,10:01:55,0.932,2.0,1.255,0.015
18/09/2022,10:02:46,0.938,2.0,1.268,0.013
18/09/2022,10:03:47,0.943,2.0,1.284,0.016
18/09/2022,10:04:47,0.946,2.0,1.3,0.016
18/09/2022,10:05:47,0.953,2.0,1.316,0.016
18/09/2022,10:06:47,0.957,2.0,1.332,0.016
18/09/2022,10:07:55,0.963,2.0,1.35,0.018